QPF
0.00 0.00 0.00 0.00 0.00 0.00 0.00 0.00 0.00 0.00 0.00 0.00 0.00 0.00 0.00 0.00 0.00 0.00 0.00 0.00 0.00 0.00 0.00 0.00 0.00 0.00 0.00 0.00 0.00 0.00 0.00 0.00 0.00 0.00 0.00 0.00 0.00 0.00 0.00 0.00 0.00 0.00 0.00
0.00 0.00 0.00 0.00 0.00 0.00 0.00 0.00 0.00 0.00 0.00 0.00 0.00 0.00 0.00 0.00 0.00 0.00 0.00 0.00 0.00 0.00 0.00 0.00 0.00 0.00 0.00 0.00 0.00 0.00 0.00 0.00 0.00 0.00 0.00 0.00 0.00 0.00 0.00 0.00 0.00 0.00 0.00
0.00 0.00 0.00 0.00 0.00 0.00 0.00 0.00 0.00 0.01 0.01 0.01 0.00 0.00 0.00 0.00 0.00 0.00 0.00 0.00 0.00 0.00 0.00 0.00 0.00 0.00 0.00 0.00 0.00 0.00 0.00 0.00 0.00 0.00 0.00 0.00 0.00 0.00 0.00 0.00 0.00 0.00 0.00
0.00 0.00 0.00 0.00 0.00 0.00 0.00 0.00 0.00 0.00 0.00 0.00 0.00 0.00 0.00 0.00 0.00 0.00 0.00 0.00 0.00 0.00 0.00 0.00 0.00 0.00 0.00 0.00 0.00 0.00 0.00 0.00 0.00 0.00 0.00 0.00 0.00 0.00 0.00 0.00 0.00 0.00 0.00
0.00 0.00 0.00 0.00 0.01 0.00 0.00 0.00 0.00 0.00 0.00 0.00 0.00 0.00 0.00 0.00 0.00 0.00 0.00 0.00 0.00 0.00 0.00 0.00 0.00 0.00 0.00 0.00 0.00 0.00 0.00 0.00 0.00 0.00 0.00 0.00 0.00 0.01 0.00 0.00 0.01 0.03 0.03
0.00 0.00 0.00 0.00 0.00 0.00 0.00 0.00 0.00 0.00 0.00 0.00 0.00 0.00 0.00 0.00 0.00 0.01 0.00 0.00 0.00 0.00 0.00 0.00 0.00 0.00 0.00 0.00 0.00 0.00 0.00 0.00 0.00 0.00 0.00 0.00 0.00 0.01 0.01 0.00 0.01 0.01 0.02
0.00 0.00 0.00 0.00 0.00 0.00 0.00 0.00 0.00 0.00 0.00 0.00 0.00 0.01 0.00 0.00 0.00 0.01 0.00 0.00 0.00 0.00 0.00 0.00 0.00 0.00 0.00 0.00 0.00 0.00 0.00 0.00 0.00 0.00 0.00 0.00 0.00 0.00 0.00 0.00 0.00 0.00 0.01
0.00 0.00 0.00 0.01 0.00 0.00 0.00 0.00 0.00 0.00 0.00 0.00 0.00 0.01 0.01 0.01 0.01 0.00 0.00 0.00 0.00 0.00 0.00 0.00 0.00 0.00 0.00 0.00 0.00 0.00 0.00 0.00 0.00 0.00 0.00 0.00 0.00 0.00 0.00 0.00 0.00 0.00 0.00
0.00 0.00 0.00 0.00 0.00 0.00 0.00 0.00 0.00 0.00 0.00 0.00 0.00 0.00 0.00 0.01 0.01 0.00 0.00 0.00 0.00 0.00 0.00 0.00 0.00 0.00 0.00 0.00 0.00 0.00 0.00 0.00 0.00 0.00 0.00 0.00 0.00 0.00 0.00 0.00 0.00 0.00 0.00
0.00 0.00 0.00 0.00 0.00 0.00 0.00 0.00 0.00 0.00 0.00 0.00 0.00 0.00 0.00 0.00 0.00 0.00 0.00 0.00 0.00 0.00 0.00 0.00 0.00 0.00 0.00 0.00 0.00 0.00 0.00 0.00 0.00 0.00 0.00 0.00 0.00 0.00 0.00 0.00 0.00 0.00 0.00
0.00 0.00 0.00 0.00 0.00 0.00 0.00 0.00 0.00 0.00 0.00 0.00 0.00 0.00 0.00 0.00 0.00 0.00 0.00 0.00 0.00 0.00 0.00 0.00 0.00 0.00 0.00 0.00 0.00 0.00 0.00 0.00 0.00 0.00 0.00 0.00 0.00 0.00 0.00 0.00 0.00 0.00 0.00
0.00 0.00 0.00 0.00 0.00 0.00 0.00 0.00 0.00 0.00 0.00 0.00 0.00 0.00 0.00 0.00 0.00 0.00 0.00 0.00 0.00 0.00 0.00 0.00 0.00 0.00 0.00 0.00 0.00 0.00 0.00 0.00 0.00 0.00 0.00 0.00 0.00 0.00 0.00 0.00 0.00 0.00 0.00
0.00 0.00 0.00 0.00 0.00 0.00 0.00 0.00 0.00 0.00 0.00 0.00 0.00 0.00 0.00 0.00 0.00 0.00 0.00 0.00 0.00 0.00 0.00 0.00 0.00 0.00 0.00 0.00 0.00 0.00 0.00 0.00 0.00 0.00 0.00 0.00 0.00 0.00 0.00 0.00 0.00 0.00 0.00
0.00 0.00 0.00 0.00 0.00 0.00 0.00 0.00 0.00 0.00 0.00 0.00 0.00 0.00 0.00 0.00 0.00 0.00 0.00 0.00 0.00 0.00 0.00 0.00 0.00 0.00 0.00 0.00 0.00 0.00 0.00 0.00 0.00 0.00 0.00 0.00 0.00 0.00 0.00 0.00 0.00 0.00 0.00
0.00 0.00 0.00 0.00 0.00 0.00 0.00 0.00 0.00 0.00 0.00 0.00 0.00 0.00 0.00 0.00 0.00 0.00 0.00 0.00 0.00 0.00 0.00 0.00 0.00 0.00 0.00 0.00 0.00 0.00 0.00 0.00 0.00 0.00 0.00 0.00 0.00 0.00 0.00 0.00 0.00 0.00 0.00
0.00 0.00 0.00 0.00 0.00 0.00 0.00 0.00 0.00 0.00 0.00 0.00 0.00 0.00 0.00 0.00 0.00 0.00 0.00 0.00 0.00 0.00 0.00 0.00 0.00 0.00 0.00 0.00 0.00 0.00 0.00 0.00 0.00 0.00 0.00 0.00 0.00 0.00 0.00 0.00 0.00 0.00 0.00
0.00 0.00 0.00 0.00 0.00 0.00 0.00 0.00 0.00 0.00 0.00 0.00 0.00 0.00 0.00 0.00 0.00 0.00 0.00 0.00 0.00 0.00 0.00 0.00 0.00 0.00 0.00 0.00 0.00 0.00 0.00 0.00 0.00 0.00 0.00 0.00 0.00 0.00 0.00 0.00 0.00 0.00 0.00
0.00 0.00 0.00 0.00 0.00 0.00 0.00 0.00 0.00 0.00 0.00 0.00 0.00 0.00 0.00 0.00 0.00 0.00 0.00 0.00 0.00 0.00 0.00 0.00 0.00 0.00 0.00 0.00 0.00 0.00 0.00 0.00 0.00 0.00 0.00 0.00 0.00 0.00 0.00 0.00 0.00 0.00 0.00
0.00 0.00 0.00 0.00 0.00 0.00 0.00 0.00 0.00 0.00 0.00 0.00 0.00 0.00 0.00 0.00 0.00 0.00 0.00 0.00 0.00 0.00 0.00 0.00 0.00 0.00 0.00 0.00 0.00 0.00 0.00 0.00 0.00 0.00 0.00 0.00 0.00 0.00 0.00 0.00 0.00 0.00 0.00
0.00 0.00 0.00 0.00 0.00 0.00 0.00 0.00 0.00 0.00 0.00 0.00 0.00 0.00 0.00 0.00 0.00 0.00 0.00 0.00 0.00 0.00 0.00 0.00 0.00 0.00 0.00 0.00 0.00 0.00 0.00 0.00 0.00 0.00 0.00 0.00 0.00 0.00 0.00 0.00 0.00 0.00 0.00
0.00 0.00 0.00 0.00 0.00 0.00 0.00 0.00 0.00 0.00 0.00 0.00 0.00 0.00 0.00 0.00 0.00 0.00 0.00 0.00 0.00 0.00 0.01 0.00 0.00 0.00 0.00 0.00 0.00 0.00 0.00 0.00 0.00 0.00 0.00 0.00 0.00 0.01 0.01 0.01 0.01 0.01 0.00
0.00 0.00 0.00 0.00 0.00 0.00 0.00 0.00 0.00 0.00 0.00 0.00 0.00 0.00 0.01 0.00 0.00 0.00 0.00 0.01 0.01 0.00 0.00 0.00 0.00 0.00 0.00 0.00 0.00 0.00 0.00 0.00 0.00 0.00 0.00 0.00 0.00 0.00 0.00 0.00 0.00 0.00 0.00
0.00 0.00 0.00 0.00 0.00 0.00 0.00 0.00 0.00 0.00 0.00 0.00 0.00 0.00 0.00 0.00 0.00 0.00 0.00 0.00 0.00 0.00 0.00 0.00 0.00 0.00 0.00 0.00 0.00 0.01 0.00 0.00 0.00 0.00 0.00 0.00 0.00 0.00 0.00 0.00 0.01 0.01 0.01
0.00 0.00 0.00 0.00 0.00 0.00 0.00 0.00 0.00 0.00 0.00 0.00 0.00 0.00 0.00 0.00 0.00 0.00 0.00 0.00 0.00 0.00 0.00 0.00 0.00 0.00 0.00 0.00 0.00 0.00 0.00 0.00 0.00 0.00 0.00 0.00 0.00 0.00 0.00 0.00 0.00 0.00 0.00
0.00 0.00 0.00 0.00 0.00 0.00 0.00 0.00 0.00 0.00 0.00 0.00 0.00 0.00 0.00 0.00 0.00 0.00 0.00 0.00 0.00 0.00 0.00 0.00 0.00 0.00 0.00 0.00 0.00 0.00 0.00 0.00 0.00 0.00 0.00 0.00 0.00 0.00 0.00 0.00 0.00 0.00 0.00
0.00 0.00 0.00 0.00 0.00 0.00 0.00 0.00 0.00 0.00 0.00 0.00 0.00 0.00 0.00 0.00 0.00 0.00 0.00 0.00 0.00 0.00 0.00 0.00 0.00 0.00 0.00 0.00 0.00 0.00 0.00 0.01 0.00 0.00 0.00 0.00 0.00 0.00 0.00 0.00 0.00 0.00 0.00
MSLP
1015.19 1015.09 1015.24 1015.53 1015.89 1016.23 1016.48 1016.66 1016.87 1017.06 1017.30 1017.41 1017.55 1017.75 1017.88 1017.99 1018.13 1018.24 1018.24 1018.26 1018.37 1018.40 1018.55 1018.68 1018.83 1018.99 1019.05 1019.18 1019.32 1019.47 1019.65 1019.76 1019.81 1019.90 1019.96 1019.93 1019.97 1019.95 1020.00 1020.12 1020.19 1020.17 1020.12
1014.65 1014.96 1015.27 1015.61 1015.97 1016.29 1016.52 1016.82 1017.09 1017.30 1017.48 1017.54 1017.74 1017.94 1018.17 1018.24 1018.29 1018.39 1018.48 1018.56 1018.70 1018.81 1018.98 1019.10 1019.28 1019.37 1019.45 1019.58 1019.74 1019.86 1019.99 1020.06 1020.13 1020.21 1020.30 1020.36 1020.32 1020.26 1020.30 1020.37 1020.41 1020.43 1020.42
1014.84 1015.01 1015.37 1015.69 1016.05 1016.36 1016.62 1016.94 1017.25 1017.52 1017.61 1017.71 1017.98 1018.22 1018.36 1018.47 1018.53 1018.61 1018.72 1018.94 1019.06 1019.18 1019.38 1019.52 1019.69 1019.78 1019.91 1020.02 1020.11 1020.20 1020.27 1020.36 1020.47 1020.57 1020.61 1020.71 1020.62 1020.52 1020.56 1020.61 1020.61 1020.59 1020.60
1014.75 1015.13 1015.50 1015.79 1016.17 1016.53 1016.77 1017.10 1017.39 1017.62 1017.86 1018.06 1018.23 1018.42 1018.54 1018.63 1018.75 1018.79 1018.99 1019.28 1019.41 1019.59 1019.81 1019.95 1020.13 1020.21 1020.28 1020.37 1020.45 1020.48 1020.56 1020.66 1020.76 1020.80 1020.79 1020.77 1020.71 1020.66 1020.68 1020.68 1020.65 1020.60 1020.56
1014.97 1015.17 1015.57 1015.97 1016.28 1016.71 1016.97 1017.28 1017.55 1017.82 1018.09 1018.32 1018.48 1018.64 1018.74 1018.83 1018.90 1018.98 1019.24 1019.52 1019.77 1019.99 1020.20 1020.33 1020.43 1020.52 1020.62 1020.65 1020.72 1020.74 1020.78 1020.85 1021.03 1021.12 1021.08 1020.99 1020.97 1020.75 1020.82 1020.91 1020.83 1020.64 1020.25
1015.28 1015.42 1015.64 1016.04 1016.43 1016.84 1017.24 1017.50 1017.78 1017.99 1018.18 1018.45 1018.70 1018.83 1018.91 1018.96 1019.03 1019.11 1019.50 1019.84 1020.09 1020.32 1020.48 1020.59 1020.65 1020.78 1020.88 1020.89 1020.94 1020.97 1021.02 1021.12 1021.33 1021.45 1021.38 1021.26 1021.24 1021.02 1021.11 1021.17 1021.08 1020.93 1020.90
1015.52 1015.72 1015.89 1016.20 1016.55 1016.96 1017.40 1017.72 1017.97 1018.10 1018.33 1018.59 1018.84 1018.80 1019.00 1019.10 1019.19 1019.45 1019.87 1020.13 1020.33 1020.56 1020.73 1020.83 1020.92 1021.00 1021.08 1021.13 1021.17 1021.22 1021.30 1021.42 1021.60 1021.66 1021.63 1021.62 1021.39 1021.26 1021.42 1021.50 1021.50 1021.50 1021.34
1015.57 1015.89 1016.14 1016.40 1016.72 1017.10 1017.53 1017.89 1018.10 1018.32 1018.56 1018.75 1018.86 1018.96 1019.05 1019.21 1019.47 1019.74 1020.17 1020.35 1020.56 1020.72 1020.87 1021.00 1021.12 1021.21 1021.30 1021.41 1021.52 1021.59 1021.65 1021.79 1021.95 1022.02 1021.98 1021.88 1021.60 1021.62 1021.73 1021.81 1021.85 1021.85 1021.86
1015.63 1016.00 1016.26 1016.47 1016.83 1017.22 1017.65 1018.01 1018.20 1018.47 1018.75 1019.00 1019.12 1019.09 1019.27 1019.57 1019.79 1020.10 1020.40 1020.57 1020.75 1020.86 1021.01 1021.15 1021.28 1021.41 1021.48 1021.61 1021.70 1021.88 1021.99 1022.13 1022.30 1022.30 1022.25 1022.27 1021.98 1021.91 1022.08 1022.21 1022.24 1022.23 1022.18
1015.97 1016.16 1016.40 1016.61 1016.93 1017.33 1017.79 1018.07 1018.29 1018.56 1018.90 1019.18 1019.32 1019.52 1019.76 1019.98 1020.11 1020.25 1020.53 1020.62 1020.68 1020.85 1021.01 1021.22 1021.36 1021.51 1021.62 1021.72 1021.85 1022.01 1022.15 1022.26 1022.45 1022.51 1022.54 1022.49 1022.24 1022.22 1022.41 1022.56 1022.62 1022.60 1022.51
1016.40 1016.57 1016.59 1016.83 1017.12 1017.37 1017.70 1018.11 1018.45 1018.71 1018.95 1019.28 1019.58 1019.77 1020.07 1020.39 1020.53 1020.65 1020.82 1020.92 1021.01 1021.09 1021.21 1021.32 1021.44 1021.56 1021.64 1021.79 1021.80 1021.95 1022.17 1022.40 1022.54 1022.61 1022.59 1022.41 1022.29 1022.34 1022.48 1022.64 1022.73 1022.76 1022.74
1016.55 1016.69 1016.80 1016.97 1017.25 1017.60 1017.69 1018.14 1018.52 1018.80 1019.13 1019.42 1019.72 1020.01 1020.34 1020.55 1020.69 1020.78 1020.92 1021.03 1021.13 1021.24 1021.35 1021.47 1021.59 1021.69 1021.84 1022.07 1022.17 1022.13 1022.25 1022.37 1022.49 1022.53 1022.45 1022.37 1022.27 1022.27 1022.43 1022.61 1022.74 1022.78 1022.85
1016.56 1016.73 1016.87 1017.00 1017.36 1017.68 1017.89 1018.32 1018.69 1018.95 1019.24 1019.54 1019.78 1020.12 1020.42 1020.61 1020.77 1020.89 1021.08 1021.16 1021.22 1021.27 1021.49 1021.57 1021.72 1021.86 1022.03 1022.16 1022.27 1022.47 1022.44 1022.56 1022.64 1022.59 1022.44 1022.35 1022.27 1022.16 1022.26 1022.52 1022.75 1022.93 1023.07
1016.46 1016.60 1016.85 1017.04 1017.39 1017.76 1018.01 1018.40 1018.68 1019.01 1019.30 1019.59 1019.80 1020.09 1020.45 1020.70 1020.85 1020.98 1021.12 1021.20 1021.30 1021.39 1021.54 1021.68 1021.82 1021.94 1022.05 1022.04 1022.18 1022.33 1022.47 1022.58 1022.63 1022.57 1022.46 1022.35 1022.30 1022.19 1022.19 1022.39 1022.69 1022.94 1023.10
1016.51 1016.58 1016.77 1017.04 1017.39 1017.73 1018.09 1018.39 1018.66 1018.87 1019.12 1019.34 1019.73 1020.01 1020.24 1020.57 1020.74 1020.89 1021.00 1021.10 1021.23 1021.40 1021.50 1021.65 1021.78 1021.89 1021.96 1022.04 1022.13 1022.25 1022.37 1022.38 1022.42 1022.33 1022.21 1022.15 1022.14 1022.10 1022.04 1022.12 1022.36 1022.64 1022.81
1016.43 1016.58 1016.72 1016.97 1017.16 1017.57 1017.89 1018.20 1018.44 1018.69 1018.90 1019.23 1019.50 1019.73 1019.96 1020.17 1020.46 1020.70 1020.81 1020.92 1021.06 1021.16 1021.27 1021.44 1021.59 1021.68 1021.73 1021.84 1021.87 1021.88 1021.89 1022.07 1022.05 1022.10 1022.00 1021.95 1021.87 1021.88 1021.89 1021.92 1021.98 1022.18 1022.39
1016.28 1016.29 1016.51 1016.76 1016.93 1017.42 1017.67 1017.97 1018.28 1018.49 1018.74 1019.00 1019.13 1019.39 1019.56 1019.79 1020.07 1020.25 1020.52 1020.65 1020.65 1020.79 1021.04 1021.27 1021.33 1021.47 1021.57 1021.54 1021.65 1021.52 1021.60 1021.56 1021.72 1021.77 1021.75 1021.74 1021.59 1021.51 1021.53 1021.52 1021.61 1021.77 1022.01
1016.15 1016.25 1016.42 1016.69 1016.93 1017.31 1017.51 1017.67 1017.95 1018.27 1018.52 1018.66 1018.81 1019.03 1019.22 1019.35 1019.55 1019.87 1020.15 1020.25 1020.24 1020.56 1020.79 1020.98 1021.07 1021.31 1021.38 1021.49 1021.41 1021.23 1021.21 1021.24 1021.28 1021.29 1021.35 1021.33 1021.31 1021.26 1021.20 1021.23 1021.22 1021.30 1021.51
1016.08 1016.31 1016.48 1016.61 1016.75 1016.98 1017.23 1017.47 1017.77 1018.00 1018.33 1018.42 1018.53 1018.66 1018.77 1018.95 1019.09 1019.35 1019.52 1019.58 1019.92 1020.27 1020.50 1020.67 1020.92 1021.12 1021.13 1021.11 1021.09 1020.97 1020.96 1021.01 1020.85 1020.80 1020.90 1020.94 1020.93 1020.93 1021.06 1021.01 1020.98 1021.06 1021.21
1016.16 1016.35 1016.53 1016.62 1016.77 1016.97 1017.14 1017.37 1017.61 1017.85 1018.01 1018.11 1018.15 1018.22 1018.34 1018.47 1018.63 1018.95 1019.12 1019.31 1019.54 1019.88 1020.21 1020.40 1020.56 1020.61 1020.66 1020.69 1020.84 1020.75 1020.63 1020.56 1020.52 1020.54 1020.27 1020.37 1020.55 1020.44 1020.60 1020.69 1020.79 1020.82 1020.97
1016.57 1016.57 1016.69 1016.85 1016.94 1016.99 1017.28 1017.57 1017.73 1017.78 1017.77 1017.83 1017.74 1017.78 1017.92 1018.07 1018.23 1018.50 1018.65 1018.74 1018.96 1019.37 1019.42 1019.64 1020.01 1020.28 1020.41 1020.42 1020.92 1020.58 1020.16 1019.82 1019.92 1019.92 1019.83 1019.89 1019.85 1019.87 1020.03 1020.26 1020.48 1020.57 1020.75
1016.88 1016.94 1016.97 1017.12 1017.22 1017.21 1017.27 1017.46 1017.57 1017.64 1017.66 1017.53 1017.46 1017.55 1017.68 1017.80 1017.86 1018.03 1018.17 1018.38 1018.56 1018.89 1019.00 1019.21 1019.58 1019.94 1020.00 1020.02 1020.33 1020.66 1020.10 1019.65 1019.58 1019.22 1019.48 1019.61 1019.55 1019.80 1019.85 1020.01 1020.20 1020.34 1020.48
1017.14 1017.17 1017.20 1017.19 1017.19 1017.30 1017.39 1017.58 1017.82 1017.91 1017.94 1017.87 1017.90 1017.94 1017.96 1017.94 1017.92 1017.93 1017.92 1017.93 1018.10 1018.35 1018.54 1018.69 1018.93 1019.30 1019.53 1019.63 1019.73 1019.96 1020.02 1019.81 1019.71 1019.05 1019.07 1019.21 1019.64 1019.72 1019.79 1019.76 1019.85 1019.87 1020.08
1017.42 1017.39 1017.34 1017.40 1017.46 1017.58 1017.63 1017.73 1017.94 1018.19 1018.46 1018.42 1018.42 1018.41 1018.41 1018.33 1018.30 1018.29 1018.22 1018.10 1018.00 1017.96 1018.18 1018.23 1018.35 1018.57 1019.00 1019.22 1019.57 1019.53 1019.56 1019.68 1019.82 1019.46 1019.22 1019.05 1019.15 1019.21 1019.25 1019.39 1019.42 1019.39 1019.46
1017.76 1017.81 1017.74 1017.77 1017.88 1017.97 1018.02 1018.10 1018.30 1018.60 1018.82 1018.79 1018.78 1018.74 1018.79 1018.81 1018.78 1018.77 1018.61 1018.45 1018.25 1017.87 1017.94 1017.91 1017.96 1018.13 1018.31 1018.62 1018.89 1019.09 1019.19 1019.34 1019.62 1019.80 1019.34 1019.32 1019.41 1019.21 1019.16 1019.27 1019.10 1019.03 1019.16
1018.06 1018.20 1018.16 1018.23 1018.47 1018.43 1018.43 1018.48 1018.61 1018.82 1018.97 1019.01 1019.11 1019.19 1019.11 1019.02 1018.97 1018.93 1018.76 1018.63 1018.40 1018.14 1017.82 1017.60 1017.57 1017.62 1017.81 1018.06 1018.22 1018.44 1018.59 1018.87 1019.11 1019.34 1019.37 1019.29 1019.25 1019.03 1019.10 1019.01 1018.81 1018.87 1019.09
Thickness
5759 5760 5758 5757 5754 5752 5751 5751 5750 5748 5746 5746 5745 5743 5742 5742 5740 5739 5738 5738 5736 5736 5735 5732 5730 5728 5727 5725 5724 5722 5720 5718 5716 5714 5713 5712 5710 5709 5707 5706 5704 5704 5703
5762 5760 5757 5755 5753 5751 5750 5749 5747 5746 5744 5744 5742 5741 5739 5738 5737 5736 5735 5735 5733 5731 5729 5727 5725 5724 5722 5721 5719 5717 5715 5714 5713 5711 5709 5707 5705 5705 5703 5702 5700 5699 5698
5759 5757 5755 5753 5751 5750 5749 5747 5745 5743 5743 5742 5740 5737 5736 5735 5735 5734 5733 5730 5729 5727 5724 5722 5720 5718 5717 5715 5714 5713 5712 5710 5708 5707 5705 5703 5701 5700 5699 5697 5696 5695 5693
5756 5755 5753 5751 5749 5747 5747 5745 5743 5741 5740 5738 5736 5734 5733 5733 5732 5732 5730 5726 5725 5723 5720 5718 5715 5714 5712 5711 5710 5709 5708 5706 5704 5703 5702 5700 5698 5696 5695 5693 5692 5692 5691
5752 5753 5751 5748 5747 5745 5744 5742 5741 5739 5737 5735 5733 5732 5730 5730 5729 5729 5726 5723 5721 5718 5715 5714 5712 5710 5708 5707 5706 5705 5704 5702 5699 5698 5697 5696 5694 5693 5692 5689 5688 5688 5691
5748 5749 5749 5747 5745 5743 5741 5739 5737 5736 5735 5732 5730 5729 5728 5728 5727 5726 5723 5719 5717 5714 5712 5710 5709 5707 5705 5704 5703 5701 5700 5698 5696 5693 5692 5691 5689 5688 5686 5684 5684 5684 5683
5744 5744 5744 5744 5743 5741 5738 5736 5734 5733 5732 5730 5727 5727 5726 5726 5725 5722 5718 5715 5713 5710 5708 5706 5705 5704 5702 5700 5699 5697 5695 5693 5692 5690 5689 5687 5686 5684 5681 5679 5678 5676 5677
5741 5741 5740 5740 5739 5738 5735 5733 5732 5730 5729 5726 5724 5724 5724 5723 5721 5718 5714 5712 5709 5707 5705 5703 5702 5700 5699 5696 5694 5692 5690 5687 5685 5684 5683 5682 5681 5679 5677 5675 5672 5670 5669
5737 5737 5736 5737 5736 5734 5732 5730 5729 5728 5726 5724 5722 5721 5720 5718 5716 5713 5710 5708 5706 5704 5703 5701 5698 5697 5695 5693 5690 5687 5685 5682 5680 5679 5677 5676 5675 5674 5671 5668 5666 5665 5664
5731 5732 5733 5733 5732 5730 5728 5727 5726 5725 5723 5721 5720 5718 5715 5712 5711 5710 5708 5706 5704 5702 5700 5698 5696 5694 5692 5690 5687 5684 5682 5679 5677 5674 5672 5670 5669 5667 5664 5661 5659 5658 5657
5725 5727 5728 5728 5728 5727 5726 5724 5723 5722 5721 5718 5716 5715 5711 5708 5706 5705 5703 5701 5700 5698 5696 5694 5693 5691 5690 5687 5686 5682 5679 5676 5673 5670 5668 5667 5665 5662 5659 5657 5654 5652 5651
5718 5721 5724 5724 5724 5723 5723 5721 5720 5719 5717 5715 5712 5710 5707 5705 5704 5702 5700 5698 5695 5693 5692 5690 5688 5687 5685 5683 5681 5678 5676 5673 5671 5667 5666 5664 5661 5659 5656 5654 5651 5649 5647
5715 5717 5720 5721 5720 5719 5719 5717 5715 5714 5713 5711 5709 5705 5703 5702 5701 5700 5697 5695 5693 5691 5689 5687 5685 5683 5681 5679 5676 5673 5671 5668 5666 5664 5662 5661 5658 5656 5653 5650 5646 5643 5641
5711 5715 5716 5716 5716 5714 5715 5714 5712 5710 5709 5708 5705 5703 5701 5699 5698 5696 5694 5693 5691 5689 5687 5684 5682 5680 5677 5676 5673 5670 5667 5664 5662 5660 5657 5656 5653 5650 5648 5645 5641 5638 5635
5707 5710 5712 5712 5711 5710 5710 5709 5708 5708 5706 5705 5702 5700 5699 5696 5695 5693 5692 5690 5688 5686 5684 5682 5679 5676 5674 5671 5669 5666 5663 5660 5658 5657 5655 5653 5649 5646 5644 5642 5638 5634 5632
5702 5705 5707 5707 5708 5707 5707 5706 5705 5705 5704 5702 5700 5699 5697 5695 5693 5691 5689 5687 5685 5683 5681 5678 5675 5673 5671 5668 5665 5663 5660 5658 5656 5653 5652 5650 5647 5643 5640 5637 5634 5630 5627
5697 5702 5703 5704 5705 5703 5704 5703 5702 5702 5701 5699 5698 5697 5696 5693 5691 5689 5687 5684 5683 5681 5677 5674 5672 5669 5666 5665 5661 5659 5658 5656 5653 5650 5648 5645 5643 5640 5637 5633 5630 5627 5624
5694 5696 5698 5701 5701 5699 5699 5700 5699 5698 5697 5695 5694 5693 5692 5691 5689 5687 5684 5682 5680 5677 5674 5671 5668 5665 5662 5660 5658 5657 5655 5653 5650 5647 5645 5641 5638 5635 5632 5628 5625 5623 5620
5688 5690 5692 5695 5697 5697 5695 5694 5693 5693 5692 5691 5691 5691 5689 5688 5687 5686 5684 5681 5677 5673 5670 5667 5663 5660 5657 5655 5654 5653 5651 5648 5646 5643 5640 5636 5633 5629 5626 5622 5619 5617 5614
5680 5683 5685 5688 5690 5690 5689 5689 5688 5688 5688 5687 5688 5688 5687 5686 5684 5682 5680 5677 5673 5669 5666 5663 5660 5657 5655 5653 5650 5650 5646 5644 5642 5639 5636 5632 5628 5626 5622 5618 5613 5610 5607
5669 5675 5678 5679 5680 5683 5682 5681 5682 5683 5684 5685 5685 5685 5684 5682 5681 5679 5677 5674 5670 5667 5666 5663 5658 5654 5651 5647 5641 5643 5643 5642 5638 5635 5632 5629 5627 5623 5618 5612 5607 5604 5599
5659 5664 5668 5670 5671 5674 5676 5676 5678 5679 5680 5681 5680 5680 5679 5678 5677 5675 5673 5671 5667 5664 5662 5658 5654 5650 5647 5642 5638 5632 5639 5640 5633 5632 5627 5623 5621 5615 5611 5606 5601 5597 5592
5649 5654 5658 5661 5664 5665 5667 5668 5668 5669 5671 5671 5671 5671 5670 5670 5670 5669 5668 5666 5663 5660 5657 5654 5651 5646 5644 5638 5633 5629 5626 5628 5625 5629 5624 5618 5611 5608 5604 5599 5593 5588 5583
5640 5645 5649 5652 5654 5656 5657 5658 5659 5658 5658 5658 5658 5658 5659 5660 5660 5659 5659 5657 5655 5653 5652 5650 5646 5642 5636 5634 5625 5622 5620 5619 5616 5617 5617 5613 5608 5604 5599 5593 5587 5582 5576
5628 5633 5637 5640 5642 5644 5646 5647 5648 5647 5646 5646 5647 5648 5647 5647 5646 5645 5645 5645 5644 5644 5644 5643 5640 5636 5632 5628 5623 5617 5613 5609 5604 5601 5608 5605 5597 5594 5591 5585 5580 5574 5568
5617 5620 5625 5628 5629 5632 5634 5636 5637 5637 5637 5638 5637 5636 5637 5637 5637 5635 5635 5634 5634 5635 5636 5636 5633 5630 5626 5622 5618 5614 5610 5605 5600 5594 5592 5592 5591 5590 5581 5576 5571 5563 5556